This is the latest recevied weather packets stored in our database for station/object DC0VZ-6. If no packets are shown the sender has not sent any weather packets the latest 10 day(s).
| Time | Temp. | Humidity | Pressure | Rain* | Wind** | Luminosity | Snow |
|---|---|---|---|---|---|---|---|
| 1778069170 | 16.67° C | 51% | 974.5 hPa | 0 mm | - | - | - |
| 1778068570 | 16.11° C | 53% | 974.6 hPa | 0 mm | - | - | - |
| 1778067970 | 17.22° C | 53% | 974.6 hPa | 0 mm | - | - | - |
| 1778067370 | 17.78° C | 53% | 974.6 hPa | 0 mm | - | - | - |
| 1778066770 | 16.67° C | 53% | 974.6 hPa | 0 mm | - | - | - |
| 1778066170 | 18.33° C | 55% | 974.6 hPa | 0 mm | - | - | - |
| 1778065570 | 17.78° C | 54% | 974.6 hPa | 0 mm | - | - | - |
| 1778064970 | 18.33° C | 56% | 974.8 hPa | 0 mm | - | - | - |
| 1778064370 | 17.22° C | 56% | 974.8 hPa | 0 mm | - | - | - |
| 1778063769 | 17.22° C | 56% | 974.6 hPa | 0 mm | - | - | - |
| 1778063169 | 17.22° C | 56% | 974.6 hPa | 0 mm | - | - | - |
| 1778062569 | 16.67° C | 56% | 974.5 hPa | 0 mm | - | - | - |
| 1778061970 | 16.67° C | 56% | 974.5 hPa | 0 mm | - | - | - |
| 1778061369 | 16.67° C | 56% | 974.6 hPa | 0 mm | - | - | - |
| 1778060769 | 16.11° C | 57% | 974.6 hPa | 0 mm | - | - | - |
| 1778060174 | 17.78° C | 58% | 974.5 hPa | 0 mm | - | - | - |
| 1778059574 | 17.22° C | 57% | 974.5 hPa | 0 mm | - | - | - |
| 1778058974 | 16.11° C | 57% | 974.4 hPa | 0 mm | - | - | - |
| 1778058374 | 15.56° C | 58% | 974.4 hPa | 0 mm | - | - | - |
| 1778057774 | 15° C | 58% | 974.1 hPa | 0 mm | - | - | - |
| 1778057174 | 14.44° C | 58% | 974.1 hPa | 0 mm | - | - | - |
| 1778056574 | 14.44° C | 58% | 973.9 hPa | 0 mm | - | - | - |
| 1778055974 | 14.44° C | 58% | 973.9 hPa | 0 mm | - | - | - |
| 1778055373 | 13.89° C | 58% | 973.9 hPa | 0 mm | - | - | - |
| 1778054773 | 13.89° C | 58% | 973.9 hPa | 0 mm | - | - | - |
* Rain latest hour (hover to see other rain measurements)
** Current wind speed in m/s (hover to see current wind gust speed)